Simultaneous Nadir Overpasses (SNOs) Predictions

Prediction of SNOs between FY3D and METOP-A Satellite Orbit:

Table of predicted SNOs for the next 14.0 days since TLE Epoch: 6/29/2019
Index Date (FY3D) Time (FY3D) Lat,Lon (FY3D) SZA (FY3D ) Date (METOP-A) Time (METOP-A) Lat,Lon (METOP-A) SZA (METOP-A ) Distance(km) Time Diff (sec)
1 07/03/2019 09:38:44 75.15, 22.53 52.61 07/03/2019 09:39:50 75.11, 25.41 52.36 82.13 66
2 07/03/2019 10:29:25 -75.00,-169.69 127.58 07/03/2019 10:30:34 -74.99,-167.60 127.74 60.24 69
3 07/03/2019 11:20:07 74.86, -1.99 52.27 07/03/2019 11:21:18 74.80, -0.79 52.11 35.75 71
4 07/03/2019 12:10:48 -74.75, 165.63 127.86 07/03/2019 12:12:01 -74.68, 166.22 127.99 19.02 73
5 07/03/2019 13:01:30 74.61, -26.68 51.99 07/03/2019 13:02:43 74.58, -26.70 51.94 3.14 73
6 07/03/2019 13:52:14 -74.60, 140.67 128.03 07/03/2019 13:53:24 -74.61, 140.70 128.04 1.96 70
7 07/03/2019 14:42:59 74.60, -52.03 51.99 07/03/2019 14:44:04 74.61, -51.96 51.97 2.45 65
8 07/03/2019 15:33:43 -74.59, 115.32 128.03 07/03/2019 15:34:46 -74.59, 115.31 128.04 0.53 63
9 07/03/2019 16:24:28 74.60, -77.39 51.98 07/03/2019 16:25:26 74.59, -77.35 51.96 1.05 58
10 07/03/2019 17:15:12 -74.58, 89.97 128.03 07/03/2019 17:16:08 -74.57, 89.92 128.05 1.46 56
11 07/03/2019 18:05:57 74.59,-102.74 51.98 07/03/2019 18:06:48 74.58,-102.74 51.96 1.34 51
12 07/03/2019 18:56:41 -74.57, 64.62 128.04 07/03/2019 18:57:30 -74.56, 64.54 128.06 3.07 49
13 07/03/2019 19:47:26 74.58,-128.09 51.98 07/03/2019 19:48:10 74.56,-128.13 51.95 2.85 44
14 07/03/2019 20:38:10 -74.57, 39.27 128.04 07/03/2019 20:38:51 -74.59, 39.27 128.03 2.34 41
15 07/03/2019 21:28:55 74.57,-153.44 51.98 07/03/2019 21:29:31 74.59,-153.39 51.98 2.18 36
16 07/03/2019 22:19:39 -74.56, 13.91 128.04 07/03/2019 22:20:13 -74.57, 13.88 128.04 1.44 34
17 07/03/2019 23:10:24 74.56,-178.79 51.97 07/03/2019 23:10:53 74.57,-178.78 51.97 0.51 29
18 07/04/2019 00:01:08 -74.55, -11.44 128.05 07/04/2019 00:01:35 -74.55, -11.50 128.05 2.03 27
19 07/04/2019 00:51:53 74.56, 155.86 51.97 07/04/2019 00:52:15 74.55, 155.83 51.96 1.17 22
20 07/04/2019 01:42:37 -74.54, -36.79 128.05 07/04/2019 01:42:57 -74.53, -36.89 128.06 3.40 20
21 07/04/2019 02:33:22 74.55, 130.51 51.97 07/04/2019 02:33:37 74.53, 130.44 51.95 2.84 15
22 07/04/2019 03:24:06 -74.53, -62.14 128.05 07/04/2019 03:24:18 -74.56, -62.16 128.03 2.99 12
23 07/04/2019 04:14:51 74.54, 105.16 51.97 07/04/2019 04:14:58 74.56, 105.18 51.98 2.29 7
24 07/04/2019 05:05:35 -74.53, -87.49 128.05 07/04/2019 05:05:40 -74.54, -87.54 128.04 2.39 5
25 07/04/2019 05:56:20 74.53, 79.80 51.96 07/04/2019 05:56:20 74.54, 79.79 51.97 1.06 0
26 07/04/2019 06:47:04 -74.52,-112.84 128.06 07/04/2019 06:47:02 -74.52,-112.93 128.04 2.80 2
27 07/04/2019 07:37:49 74.53, 54.45 51.96 07/04/2019 07:37:42 74.52, 54.40 51.96 1.61 7
28 07/04/2019 08:28:34 -74.56,-138.32 128.00 07/04/2019 08:28:23 -74.55,-138.20 128.01 3.75 11
29 07/04/2019 09:19:18 74.52, 29.10 51.96 07/04/2019 09:19:04 74.51, 29.01 51.95 3.10 14
30 07/04/2019 10:10:03 -74.55,-163.67 128.00 07/04/2019 10:09:45 -74.54,-163.58 128.02 3.16 18
31 07/04/2019 11:00:47 74.51, 3.75 51.96 07/04/2019 11:00:25 74.54, 3.75 51.99 2.72 22
32 07/04/2019 11:51:31 -74.50, 171.11 128.06 07/04/2019 11:51:07 -74.52, 171.03 128.03 3.32 24
33 07/04/2019 12:42:16 74.50, -21.60 51.95 07/04/2019 12:41:47 74.52, -21.64 51.98 1.90 29
34 07/04/2019 13:33:00 -74.49, 145.75 128.06 07/04/2019 13:32:29 -74.50, 145.64 128.04 3.65 31
35 07/04/2019 14:23:45 74.50, -46.95 51.95 07/04/2019 14:23:09 74.50, -47.03 51.97 2.32 36
36 07/04/2019 15:14:30 -74.53, 120.27 128.01 07/04/2019 15:13:50 -74.53, 120.38 128.01 2.99 40
37 07/04/2019 16:05:14 74.49, -72.30 51.95 07/04/2019 16:04:31 74.48, -72.42 51.96 3.57 43
38 07/04/2019 16:55:59 -74.52, 94.92 128.01 07/04/2019 16:55:12 -74.51, 94.99 128.02 2.23 47
39 07/04/2019 17:46:43 74.48, -97.66 51.95 07/04/2019 17:45:52 74.51, -97.68 51.99 3.34 51
40 07/04/2019 18:37:28 -74.51, 69.57 128.02 07/04/2019 18:36:34 -74.49, 69.60 128.02 2.54 54
41 07/04/2019 19:28:12 74.47,-123.01 51.94 07/04/2019 19:27:14 74.49,-123.07 51.98 2.77 58
42 07/04/2019 20:18:57 -74.51, 44.22 128.02 07/04/2019 20:17:56 -74.47, 44.21 128.03 3.64 61
43 07/04/2019 21:09:41 74.47,-148.36 51.94 07/04/2019 21:08:36 74.47,-148.46 51.97 3.12 65
44 07/04/2019 22:00:26 -74.50, 18.87 128.02 07/04/2019 21:59:17 -74.50, 18.95 128.00 2.36 69
45 07/04/2019 22:51:11 74.51,-173.84 52.00 07/04/2019 22:49:57 74.50,-173.72 52.01 3.46 74
46 07/04/2019 23:41:54 -74.44, -6.35 128.08 07/04/2019 23:40:40 -74.44, -6.57 128.05 6.41 74
47 07/05/2019 00:32:35 74.26, 161.44 51.72 07/05/2019 00:31:23 74.29, 160.39 51.84 32.02 72
48 07/05/2019 01:23:18 -74.19, -31.08 128.36 07/05/2019 01:22:07 -74.17, -32.57 128.25 45.27 71
49 07/05/2019 02:13:58 73.95, 136.83 51.38 07/05/2019 02:12:51 73.97, 134.27 51.59 78.47 67
50 07/05/2019 03:04:41 -73.89, -55.71 128.69 07/05/2019 03:03:34 -73.91, -58.55 128.46 87.91 67




NCC Satellite Simultaneous Nadir Overpasses (SNOs) Prediction Service
